星链-3366 (STARLINK-3366 )

导读 | 星芒AI

STARLINK-3366 是由 SpaceX 开发并部署的星链(Starlink)卫星网络中的一个成员,属于其低轨宽带互联网星座的一部分。该卫星于2023年发射,旨在为全球用户提供高速、低延迟的互联网服务。它运行在约550公里的近地轨道上,采用先进的通信技术,支持全球范围内的网络连接,特别是在偏远和网络基础设施薄弱的地区。STARLINK-3366 的部署有助于增强星链系统的覆盖能力和服务稳定性。

基本信息
目录编号:
51104
目录名称:
STARLINK-3366
国际标识:
2022-005A
轨道中心:
EARTH
卫星名称:
星链-3366
卫星全名:
星链-3366 (STARLINK-3366 )
卫星状态:
在轨 (已飞行1385 天)
发射日期:
2022-01-19 UTC
国别 :
美国 (US)
星等 :
--
轨道信息
数据来源 国际轨道数据
星历时间: 2025-11-04T13:09:01+0800
8小时前
查看轨道信息
半长轴: 6917.883km
偏心率: 0.0001356
轨道倾角: 53.216°
近地点辐角 86.695°
升交点赤经 132.399°
平近点角 273.420°
近地点: 538.809km
远地点: 540.687km
周期: 95.438分钟
每日圈数: 15.088394
详细信息
固有亮度:
5
最大亮度:
2.5
卫星平台:
Starlink v1.5
覆盖范围:
全球
运营商:
太空探索技术公司
运营商所在国:
美国
制造商(研发单位):
太空探索技术公司
制造商所在国:
美国
使用方式:
暂无
卫星简介
星链(Starlink)计划是由太空探索技术公司(SpaceX)提出的一个巨型低轨卫星互联网星座项目,计划在2019年至2024年间在太空搭建由约1.2万颗卫星组成的“星链”网络,其中1584颗将部署在地球上空550千米处的近地轨道,并从2020年开始工作。该卫星仍在工作。
2D轨道图
3D轨道图
轨道高度分析图
轨道倾角分析图
轨道综合分析图
查看轨道综合分析图